SCP
0 0 0 0 -0 -0 0 0 0 0 0 0 0 0 0 0 0 0 0 0 -0 0 0 0 -0 -0 -0 -0 -0 -0 -0 -0 -0 -0 -0 -0 -0 -0 -0 -0 -0 -0 -0 -0 -0 -0 -0 -0 -0
-0 0 -0 0 0 -0 0 0 0 0 0 0 0 0 0 0 0 0 0 0 0 -0 0 0 -0 -0 -0 -0 -0 -0 -0 -0 -0 -0 -0 -0 -0 -0 -0 -0 -0 -0 -0 -0 -0 -0 -0 -0 -0
0 -0 -0 0 -0 -0 -0 -0 -0 0 -0 0 0 0 0 0 0 0 -0 -0 -0 0 0 0 -0 -0 -0 -0 -0 -0 -0 -0 -0 -0 -0 -0 -0 -0 -0 -0 -0 -0 -0 -0 -0 -0 -0 -0 -0
0 0 -0 0 -0 -0 -0 -0 -0 -0 0 0 0 0 0 0 0 -0 0 -0 -0 0 0 -0 -0 -0 -0 -0 -0 -0 -0 -0 -0 -0 -0 -0 -0 -0 -0 -0 -0 -0 -0 -0 -0 -0 -0 -0 -0
0 0 0 0 -0 -0 0 0 0 0 0 0 0 0 0 0 -0 0 0 0 -0 0 0 -0 -0 -0 -0 -0 -0 -0 -0 -0 -0 -0 -0 -0 -0 -0 -0 -0 -0 -0 -0 -0 -0 -0 -0 -0 -0
0 0 0 0 0 0 0 0 0 0 0 0 0 0 0 0 0 0 0 0 0 0 -0 0 -0 -0 -0 -0 -0 -0 -0 -0 -0 -0 -0 -0 -0 -0 -0 -0 -0 -0 -0 -0 -0 -0 -0 0 -0
0 0 0 0 0 0 0 0 0 0 0 0 0 0 0 0 0 0 0 -0 0 0 0 0 0 0 -0 -0 -0 -0 -0 -0 -0 -0 -0 -0 -0 -0 -0 -0 -0 -0 -0 -0 -0 -0 -0 -0 -0
0 0 0 0 0 0 0 0 0 0 0 0 0 0 0 0 0 0 0 0 0 0 0 0 0 0 0 0 -0 -0 -0 -0 -0 -0 -0 0 0 0 0 0 0 -0 -0 -0 -0 -0 -0 -0 -0
0 0 0 0 0 0 0 0 0 0 0 0 0 0 0 0 0 0 0 0 0 0 0 0 0 0 0 0 0 0 -0 -0 0 0 0 0 0 0 0 0 0 0 0 0 0 0 0 0 0
0 0 0 0 0 0 0 0 0 0 0 0 0 0 0 0 0 0 0 0 0 0 0 0 0 0 0 0 0 0 0 0 0 0 0 0 0 0 0 0 0 0 0 0 0 0 0 0 0
0 0 0 0 0 0 0 0 0 0 0 0 0 0 0 0 0 0 0 0 0 0 0 0 0 0 0 0 0 0 0 0 0 0 0 0 0 0 0 0 0 0 0 0 0 0 0 0 0
0 0 0 0 0 0 0 0 0 0 0 0 0 0 0 0 0 0 0 0 0 0 0 0 0 0 0 0 0 0 0 0 0 0 0 0 0 0 0 0 0 0 0 0 0 0 0 0 0
0 0 0 0 0 0 0 0 0 0 0 0 0 0 0 0 0 0 0 0 0 0 0 0 0 0 0 0 0 0 0 0 0 0 0 0 0 0 0 0 0 0 0 0 0 0 0 0 0
0 0 0 0 0 0 0 0 0 0 0 0 0 0 0 0 0 0 0 0 0 0 0 0 0 0 0 0 0 0 0 0 0 0 0 0 0 0 0 0 0 0 0 0 0 0 0 0 0
0 0 0 0 0 0 0 0 0 0 0 0 0 0 0 0 0 0 0 0 0 0 0 0 0 0 0 0 0 0 0 0 0 0 0 0 0 0 0 0 0 0 0 0 0 0 0 0 0
0 0 0 0 0 0 0 0 0 0 0 0 0 0 0 0 0 0 0 0 0 0 0 0 0 0 0 0 0 0 0 0 0 0 0 0 0 0 0 0 0 0 0 0 0 0 0 0 0
0 0 0 0 0 0 0 0 0 0 0 0 0 0 0 0 0 0 0 0 0 0 0 0 0 0 0 0 0 0 0 0 0 0 0 0 0 0 0 0 0 0 0 0 0 0 0 0 0
0 0 0 0 0 0 0 0 0 0 0 0 0 0 0 0 0 0 0 0 0 0 0 0 0 0 0 0 0 0 0 0 0 0 0 0 0 0 0 0 0 0 0 0 0 0 0 0 0
0 0 0 0 0 0 0 0 0 0 0 0 0 0 0 0 0 0 0 0 0 0 0 0 0 0 0 0 0 0 0 0 0 0 0 0 0 0 0 0 0 0 0 0 0 0 0 0 0
0 0 0 0 0 0 0 0 0 0 0 0 0 0 0 0 0 0 0 0 0 0 0 0 0 0 0 0 0 0 0 0 0 0 0 0 0 0 0 0 0 0 0 0 0 0 0 0 0
0 0 0 0 0 0 0 0 0 0 0 0 0 0 0 0 0 0 0 0 0 0 0 0 0 0 0 0 0 0 0 0 0 0 0 0 0 0 0 0 0 0 0 0 0 0 0 0 0
0 0 0 0 0 0 0 -0 0 0 0 0 0 0 0 0 0 0 0 0 0 0 0 0 0 0 0 0 0 0 0 0 0 0 0 0 0 0 0 0 0 0 0 0 0 0 0 0 0
0 0 0 0 0 0 0 0 0 0 0 -0 0 0 0 0 0 0 0 0 0 0 0 0 0 0 0 0 0 0 0 0 0 0 0 0 0 0 0 0 0 0 0 0 0 0 0 0 0
0 0 0 0 0 0 0 0 -0 0 0 0 0 0 0 0 0 0 0 0 0 0 0 0 0 0 0 0 0 0 0 0 0 0 0 0 0 0 0 0 0 0 0 0 0 0 0 0 0
0 0 0 0 0 0 0 0 0 0 0 0 0 0 0 0 0 0 0 0 0 0 0 0 0 0 0 0 0 0 0 0 0 0 0 0 0 0 0 0 0 0 0 0 0 0 0 0 0
0 0 0 0 0 0 0 0 0 0 0 0 0 0 0 0 0 0 0 0 0 0 0 0 0 0 0 0 0 0 0 0 0 0 0 0 0 0 0 0 0 0 0 0 0 0 0 0 0
0 0 0 0 0 0 0 0 0 0 0 0 -0 -0 0 0 0 0 0 0 0 0 0 0 0 0 0 0 0 0 0 0 0 0 0 0 0 0 0 0 0 0 0 0 0 0 0 0 0
0 0 0 0 0 0 0 0 0 0 0 0 0 0 0 0 0 0 0 0 0 0 0 0 0 0 0 0 0 0 0 0 0 0 0 0 0 0 0 0 0 0 0 0 0 0 0 0 0
0 0 0 0 0 0 0 0 0 0 0 0 0 0 0 0 -0 0 0 0 0 0 0 0 0 0 0 0 0 0 0 0 0 0 0 0 0 0 0 0 0 0 0 0 0 0 0 0 0
0 0 0 0 0 0 0 0 0 0 0 0 0 0 0 0 -0 0 -0 -0 0 0 0 0 0 0 0 0 0 0 0 0 0 0 0 0 0 0 0 0 0 0 0 0 0 0 0 0 0
Wind_Speed_500mb
8 6 2 2 8 10 2 6 2 3 3 3 9 8 12 7 7 6 32 26 30 34 35 31 27 25 22 18 18 17 13 13 14 19 23 26 28 26 23 23 23 25 23 24 24 19 22 22 23
6 7 6 7 8 5 9 6 8 7 19 29 20 12 7 2 6 18 28 23 27 32 34 31 28 25 22 19 18 18 13 7 12 16 21 25 27 28 26 26 26 25 25 24 24 18 24 21 23
10 11 5 9 7 8 8 8 9 6 30 5 9 10 7 8 17 24 14 22 29 32 33 31 29 25 22 19 17 16 15 10 9 13 18 23 25 26 27 26 27 25 27 26 24 21 21 22 23
9 7 11 8 5 6 6 8 13 16 8 4 16 11 8 11 14 14 16 26 32 35 32 31 29 26 22 19 17 15 14 11 11 11 15 19 21 24 25 26 26 25 27 27 25 21 20 20 20
9 7 8 5 6 6 7 8 23 9 6 10 12 9 10 16 13 17 21 29 33 33 30 30 28 26 23 21 19 16 15 12 8 8 12 15 17 19 22 24 25 26 25 25 23 20 18 18 17
6 6 8 4 7 6 5 12 16 10 13 15 9 18 11 18 20 23 27 29 28 29 28 27 26 21 19 21 20 17 15 15 13 10 8 10 13 16 18 20 22 23 23 22 20 19 17 17 16
11 8 8 8 6 4 7 18 11 14 13 12 15 12 9 27 25 28 29 31 32 33 32 27 23 22 13 14 20 18 16 16 14 13 10 8 11 13 16 16 17 19 21 23 22 20 18 16 15
8 11 8 5 9 10 9 18 10 20 11 15 20 9 10 36 34 33 34 34 33 35 33 28 22 23 24 23 19 20 18 18 16 15 14 11 13 12 16 17 24 25 23 23 25 26 25 21 16
7 9 5 10 14 9 13 9 9 9 14 22 19 12 12 39 40 40 42 42 41 39 38 32 29 26 29 23 23 21 18 17 19 22 15 8 8 10 14 16 23 24 30 28 23 23 23 23 21
8 8 16 9 9 5 8 9 16 9 10 17 20 25 21 41 45 46 47 49 49 45 44 39 40 39 31 30 28 27 23 24 25 26 18 13 8 4 1 4 8 14 18 24 24 22 21 19 19
6 8 8 5 6 6 7 6 12 14 8 28 36 36 33 46 49 47 46 45 48 49 46 44 42 40 38 36 34 33 31 30 27 26 24 21 17 12 13 5 3 4 10 13 15 18 17 15 16
2 2 4 3 6 3 4 3 8 24 27 14 29 29 40 50 52 51 51 51 51 52 51 51 50 42 41 43 40 38 36 35 31 30 29 27 23 20 19 17 14 8 2 5 7 10 15 15 13
3 2 5 9 12 11 9 18 17 25 39 34 23 32 43 51 53 53 51 50 51 52 50 51 53 47 41 40 41 39 41 36 36 35 34 29 25 25 22 25 21 15 10 3 5 8 14 13 9
2 4 7 10 17 13 9 11 8 20 41 40 37 36 46 53 56 58 59 58 57 53 51 50 51 50 46 48 41 40 39 41 42 40 36 30 34 28 30 31 29 20 14 7 2 5 8 7 13
1 7 12 15 11 10 11 17 20 50 35 36 42 42 50 56 60 63 59 59 56 55 54 54 53 49 49 49 47 44 51 49 48 43 41 40 35 37 38 41 35 21 18 7 1 2 4 12 20
5 8 5 5 9 4 15 22 10 13 35 43 44 44 52 58 62 62 61 61 60 60 58 57 57 59 57 53 53 50 52 52 49 45 46 48 45 49 48 37 33 23 18 9 6 8 7 17 22
10 7 8 17 13 3 8 16 7 5 21 38 44 51 57 60 65 66 64 63 62 61 61 61 62 63 64 61 55 57 54 55 53 52 48 51 47 47 55 47 41 25 21 13 6 8 11 23 30
13 9 9 11 6 8 10 26 23 24 18 37 43 53 61 69 75 69 68 67 64 62 60 59 57 56 61 61 55 58 56 55 57 54 54 51 55 55 52 49 24 25 22 12 16 15 24 28 29
10 8 10 8 6 8 17 18 32 33 36 54 67 69 75 77 71 73 71 69 66 64 61 58 56 54 55 60 62 59 61 59 53 63 48 48 57 61 46 29 32 30 23 15 18 25 30 34 32
7 7 11 12 8 11 19 28 29 40 28 60 74 84 93 90 82 75 76 76 72 65 61 61 59 55 56 60 63 60 60 65 63 43 42 43 45 49 31 31 33 30 22 22 29 29 33 34 31
9 13 9 15 10 8 13 18 15 19 41 62 80 96 88 70 75 75 74 81 76 70 67 65 60 56 56 58 62 61 60 60 59 53 54 55 50 41 40 39 33 31 25 30 33 30 26 29 29
12 16 11 9 4 9 6 23 13 15 20 13 62 71 64 66 69 68 70 81 81 75 69 65 60 57 57 58 63 57 61 64 56 63 60 52 52 47 41 39 35 31 34 37 37 34 29 24 25
12 9 12 4 7 5 6 6 3 7 7 24 26 40 44 45 49 51 56 69 78 76 71 65 60 60 59 55 56 61 62 62 64 62 53 57 53 46 48 42 40 38 40 38 36 34 29 25 20
16 12 12 8 2 8 16 15 47 6 13 7 9 8 13 18 22 33 42 53 71 74 70 66 63 59 55 55 55 63 67 67 75 69 68 64 56 57 49 44 42 41 39 36 33 30 26 20 16
2 13 3 6 1 14 3 11 35 13 14 10 19 28 34 24 29 37 41 47 56 75 73 68 62 59 54 58 60 62 66 74 80 72 73 70 68 61 57 52 48 43 39 35 30 26 21 17 13
17 15 12 14 9 9 2 16 12 16 29 27 24 23 29 27 23 25 31 37 47 67 72 66 63 58 58 63 64 66 67 73 75 76 78 77 70 69 63 58 51 46 40 35 30 24 19 15 12
12 11 11 10 3 4 10 15 17 20 21 23 22 21 22 20 20 21 26 32 42 56 66 64 58 55 58 61 62 69 72 77 80 80 84 79 72 66 63 57 51 44 39 33 28 22 17 15 14
13 13 7 3 7 12 10 12 18 11 9 12 12 20 14 11 13 17 22 29 38 49 58 58 54 53 54 58 60 66 67 70 74 82 78 73 69 70 65 60 52 48 42 36 29 23 20 15 15
8 8 3 11 9 9 5 13 14 17 8 8 13 15 7 8 11 13 17 25 36 48 55 58 56 55 57 61 64 69 71 71 73 80 75 74 72 70 64 58 52 47 43 38 31 25 20 16 13
2 12 12 10 11 8 4 25 8 12 9 9 14 12 2 5 8 12 15 25 37 48 55 58 56 56 58 62 67 69 69 72 77 79 77 77 76 72 63 58 52 47 43 37 30 23 20 16 10
Wind_Direction_500mb
236 216 215 63 48 65 255 250 276 165 101 150 142 151 156 77 149 197 145 161 165 170 165 164 163 160 156 151 144 133 133 122 95 74 64 59 64 69 68 63 59 56 61 69 79 74 68 75 59
190 147 142 86 88 68 270 259 204 208 140 112 98 95 73 103 123 142 151 156 165 173 170 167 167 165 164 159 151 145 142 119 90 80 66 62 65 66 66 66 65 63 64 62 74 68 79 72 61
146 147 116 90 104 178 209 217 193 161 151 111 113 85 105 117 124 150 166 172 167 174 174 174 173 174 171 167 162 153 148 139 112 85 64 62 62 65 67 67 68 70 69 69 75 73 75 70 64
153 125 67 84 228 238 213 189 167 141 230 179 137 85 119 154 160 163 169 169 169 171 176 177 179 179 178 178 176 167 161 172 129 104 76 69 69 73 74 71 69 70 70 70 72 77 77 72 63
146 99 64 81 279 264 251 189 162 161 179 159 162 178 156 167 181 164 165 163 164 171 179 178 181 183 186 188 186 180 177 185 156 110 90 84 76 67 64 66 69 69 70 73 77 73 69 66 63
93 88 70 197 255 263 251 180 169 186 168 165 156 152 162 178 171 162 167 166 165 178 185 186 181 181 189 192 193 187 186 190 181 169 126 93 80 71 68 68 68 70 71 71 72 71 66 63 60
120 86 189 176 244 303 213 177 184 181 170 202 165 137 191 179 172 165 166 165 169 185 187 198 209 196 203 208 199 197 198 199 195 184 168 130 98 81 72 68 69 70 70 69 65 61 57 54 53
127 94 127 208 193 243 191 175 216 181 189 174 173 194 207 187 178 173 176 177 173 179 190 194 204 205 212 215 218 210 208 207 205 190 174 133 111 85 63 59 62 63 67 67 61 54 47 42 40
128 67 182 214 159 238 177 172 186 193 161 182 203 208 213 189 186 184 184 187 182 182 191 186 203 210 221 226 236 227 220 217 207 201 206 163 106 59 44 70 65 65 50 48 51 44 37 31 27
90 111 217 200 198 227 201 192 182 166 176 219 222 222 213 192 194 194 195 196 194 194 192 199 202 205 218 226 234 222 222 222 215 211 214 206 201 203 270 356 50 59 64 48 31 23 22 18 16
134 178 202 225 222 241 206 220 187 157 225 222 223 220 206 195 200 203 205 207 204 203 204 203 204 212 214 224 230 223 213 225 224 225 222 216 213 218 206 249 272 115 84 62 36 359 360 7 0
76 228 191 241 227 208 201 239 229 212 238 248 239 236 214 204 208 210 209 208 208 210 212 215 215 219 216 221 233 222 215 224 226 234 228 223 223 220 208 211 234 214 143 85 60 351 348 355 354
162 234 241 252 248 249 260 248 240 247 247 251 249 224 219 213 215 214 214 215 216 218 221 224 226 224 217 218 228 227 218 219 230 232 227 239 233 230 223 232 214 210 213 134 97 347 344 4 59
327 286 274 270 258 244 213 256 216 243 241 243 241 229 219 220 220 216 216 220 222 224 227 228 225 224 218 220 220 228 230 224 228 237 229 232 230 241 241 235 221 214 232 235 31 358 356 77 102
355 322 325 242 254 243 215 285 232 249 247 239 235 230 222 224 223 226 227 225 228 230 230 230 228 222 219 218 220 228 226 224 231 235 242 234 243 246 238 248 218 211 223 222 159 87 54 121 120
51 44 352 301 153 267 161 269 277 277 232 236 234 229 227 226 228 229 228 229 230 233 233 232 231 228 229 223 225 221 227 228 227 235 236 238 236 243 235 221 214 220 218 207 196 139 144 139 129
0 236 212 315 204 116 178 269 272 265 227 244 244 237 235 235 232 230 229 230 231 232 236 238 236 234 233 226 222 223 224 229 232 237 235 231 240 230 239 223 200 208 212 190 207 180 180 151 137
201 211 230 230 213 184 228 260 265 257 247 257 259 254 246 242 241 236 231 232 233 235 235 237 237 230 228 223 216 217 223 229 233 224 239 230 224 244 237 209 201 205 191 209 227 210 168 153 146
140 188 229 242 242 199 231 246 263 254 244 263 261 256 252 248 250 238 234 234 235 237 237 235 230 225 220 217 212 215 219 216 224 246 217 220 251 208 196 217 205 184 191 186 210 191 175 160 156
163 215 255 285 229 194 268 256 246 261 233 245 255 258 257 253 248 241 232 233 234 237 237 232 227 224 221 219 214 213 217 225 220 223 238 216 199 199 213 203 193 180 195 222 188 188 178 169 165
213 199 222 235 322 255 313 266 232 258 251 253 257 258 260 261 258 248 235 233 232 232 230 229 227 223 218 214 208 208 211 215 229 219 219 201 194 207 213 193 195 187 202 191 174 171 183 185 180
237 207 180 217 53 256 6 293 187 225 241 237 252 258 262 264 262 256 243 236 233 231 226 226 225 222 219 213 210 218 223 221 219 223 198 211 202 193 193 188 186 189 182 179 174 166 167 166 161
223 130 176 163 195 340 334 279 105 112 261 257 267 272 279 275 271 265 256 243 235 229 226 224 222 222 220 212 216 220 219 224 225 207 213 192 190 185 185 187 184 183 177 175 172 165 166 159 157
146 83 53 47 55 274 190 178 284 183 216 271 282 273 331 317 279 263 251 240 232 225 223 221 221 222 219 212 216 219 223 222 213 205 197 188 186 183 189 188 184 183 181 176 171 166 160 149 134
113 104 307 325 337 242 344 228 259 296 265 216 263 297 306 302 280 265 248 233 226 219 219 219 220 221 216 214 220 221 220 224 206 202 205 188 190 188 185 186 184 182 177 171 165 158 148 129 109
197 167 161 224 217 276 45 239 257 235 273 276 285 298 300 303 287 261 248 234 225 219 219 221 220 220 217 217 217 219 217 207 209 202 201 193 191 186 183 182 183 180 175 171 166 159 147 126 108
191 201 159 99 44 27 231 284 291 264 273 290 305 291 295 284 267 252 238 228 222 220 218 220 221 219 224 226 223 221 222 222 212 205 195 191 186 184 181 180 179 176 173 169 164 159 145 128 104
157 169 103 49 191 242 283 274 230 273 264 317 338 330 292 269 251 245 238 229 220 217 217 218 221 225 230 228 228 226 221 216 213 205 199 191 190 188 185 184 184 181 177 173 166 159 143 125 107
148 193 136 122 162 183 292 258 216 222 202 255 290 325 308 254 249 240 231 223 216 216 218 221 221 221 223 228 227 226 225 224 216 209 195 197 192 191 188 186 183 180 177 171 166 156 141 127 117
274 207 157 162 202 232 166 263 188 194 195 249 322 344 331 209 228 237 230 222 214 218 220 224 226 224 226 225 225 227 227 220 213 203 198 197 195 191 189 186 184 180 176 170 165 156 142 136 132
Wind_Speed_850mb
8 6 2 2 8 10 2 6 2 3 3 3 9 8 12 7 7 6 32 26 30 34 35 31 27 25 22 18 18 17 13 13 14 19 23 26 28 26 23 23 23 25 23 24 24 19 22 22 23
6 7 6 7 8 5 9 6 8 7 19 29 20 12 7 2 6 18 28 23 27 32 34 31 28 25 22 19 18 18 13 7 12 16 21 25 27 28 26 26 26 25 25 24 24 18 24 21 23
10 11 5 9 7 8 8 8 9 6 30 5 9 10 7 8 17 24 14 22 29 32 33 31 29 25 22 19 17 16 15 10 9 13 18 23 25 26 27 26 27 25 27 26 24 21 21 22 23
9 7 11 8 5 6 6 8 13 16 8 4 16 11 8 11 14 14 16 26 32 35 32 31 29 26 22 19 17 15 14 11 11 11 15 19 21 24 25 26 26 25 27 27 25 21 20 20 20
9 7 8 5 6 6 7 8 23 9 6 10 12 9 10 16 13 17 21 29 33 33 30 30 28 26 23 21 19 16 15 12 8 8 12 15 17 19 22 24 25 26 25 25 23 20 18 18 17
6 6 8 4 7 6 5 12 16 10 13 15 9 18 11 18 20 23 27 29 28 29 28 27 26 21 19 21 20 17 15 15 13 10 8 10 13 16 18 20 22 23 23 22 20 19 17 17 16
11 8 8 8 6 4 7 18 11 14 13 12 15 12 9 27 25 28 29 31 32 33 32 27 23 22 13 14 20 18 16 16 14 13 10 8 11 13 16 16 17 19 21 23 22 20 18 16 15
8 11 8 5 9 10 9 18 10 20 11 15 20 9 10 36 34 33 34 34 33 35 33 28 22 23 24 23 19 20 18 18 16 15 14 11 13 12 16 17 24 25 23 23 25 26 25 21 16
7 9 5 10 14 9 13 9 9 9 14 22 19 12 12 39 40 40 42 42 41 39 38 32 29 26 29 23 23 21 18 17 19 22 15 8 8 10 14 16 23 24 30 28 23 23 23 23 21
8 8 16 9 9 5 8 9 16 9 10 17 20 25 21 41 45 46 47 49 49 45 44 39 40 39 31 30 28 27 23 24 25 26 18 13 8 4 1 4 8 14 18 24 24 22 21 19 19
6 8 8 5 6 6 7 6 12 14 8 28 36 36 33 46 49 47 46 45 48 49 46 44 42 40 38 36 34 33 31 30 27 26 24 21 17 12 13 5 3 4 10 13 15 18 17 15 16
2 2 4 3 6 3 4 3 8 24 27 14 29 29 40 50 52 51 51 51 51 52 51 51 50 42 41 43 40 38 36 35 31 30 29 27 23 20 19 17 14 8 2 5 7 10 15 15 13
3 2 5 9 12 11 9 18 17 25 39 34 23 32 43 51 53 53 51 50 51 52 50 51 53 47 41 40 41 39 41 36 36 35 34 29 25 25 22 25 21 15 10 3 5 8 14 13 9
2 4 7 10 17 13 9 11 8 20 41 40 37 36 46 53 56 58 59 58 57 53 51 50 51 50 46 48 41 40 39 41 42 40 36 30 34 28 30 31 29 20 14 7 2 5 8 7 13
1 7 12 15 11 10 11 17 20 50 35 36 42 42 50 56 60 63 59 59 56 55 54 54 53 49 49 49 47 44 51 49 48 43 41 40 35 37 38 41 35 21 18 7 1 2 4 12 20
5 8 5 5 9 4 15 22 10 13 35 43 44 44 52 58 62 62 61 61 60 60 58 57 57 59 57 53 53 50 52 52 49 45 46 48 45 49 48 37 33 23 18 9 6 8 7 17 22
10 7 8 17 13 3 8 16 7 5 21 38 44 51 57 60 65 66 64 63 62 61 61 61 62 63 64 61 55 57 54 55 53 52 48 51 47 47 55 47 41 25 21 13 6 8 11 23 30
13 9 9 11 6 8 10 26 23 24 18 37 43 53 61 69 75 69 68 67 64 62 60 59 57 56 61 61 55 58 56 55 57 54 54 51 55 55 52 49 24 25 22 12 16 15 24 28 29
10 8 10 8 6 8 17 18 32 33 36 54 67 69 75 77 71 73 71 69 66 64 61 58 56 54 55 60 62 59 61 59 53 63 48 48 57 61 46 29 32 30 23 15 18 25 30 34 32
7 7 11 12 8 11 19 28 29 40 28 60 74 84 93 90 82 75 76 76 72 65 61 61 59 55 56 60 63 60 60 65 63 43 42 43 45 49 31 31 33 30 22 22 29 29 33 34 31
9 13 9 15 10 8 13 18 15 19 41 62 80 96 88 70 75 75 74 81 76 70 67 65 60 56 56 58 62 61 60 60 59 53 54 55 50 41 40 39 33 31 25 30 33 30 26 29 29
12 16 11 9 4 9 6 23 13 15 20 13 62 71 64 66 69 68 70 81 81 75 69 65 60 57 57 58 63 57 61 64 56 63 60 52 52 47 41 39 35 31 34 37 37 34 29 24 25
12 9 12 4 7 5 6 6 3 7 7 24 26 40 44 45 49 51 56 69 78 76 71 65 60 60 59 55 56 61 62 62 64 62 53 57 53 46 48 42 40 38 40 38 36 34 29 25 20
16 12 12 8 2 8 16 15 47 6 13 7 9 8 13 18 22 33 42 53 71 74 70 66 63 59 55 55 55 63 67 67 75 69 68 64 56 57 49 44 42 41 39 36 33 30 26 20 16
2 13 3 6 1 14 3 11 35 13 14 10 19 28 34 24 29 37 41 47 56 75 73 68 62 59 54 58 60 62 66 74 80 72 73 70 68 61 57 52 48 43 39 35 30 26 21 17 13
17 15 12 14 9 9 2 16 12 16 29 27 24 23 29 27 23 25 31 37 47 67 72 66 63 58 58 63 64 66 67 73 75 76 78 77 70 69 63 58 51 46 40 35 30 24 19 15 12
12 11 11 10 3 4 10 15 17 20 21 23 22 21 22 20 20 21 26 32 42 56 66 64 58 55 58 61 62 69 72 77 80 80 84 79 72 66 63 57 51 44 39 33 28 22 17 15 14
13 13 7 3 7 12 10 12 18 11 9 12 12 20 14 11 13 17 22 29 38 49 58 58 54 53 54 58 60 66 67 70 74 82 78 73 69 70 65 60 52 48 42 36 29 23 20 15 15
8 8 3 11 9 9 5 13 14 17 8 8 13 15 7 8 11 13 17 25 36 48 55 58 56 55 57 61 64 69 71 71 73 80 75 74 72 70 64 58 52 47 43 38 31 25 20 16 13
2 12 12 10 11 8 4 25 8 12 9 9 14 12 2 5 8 12 15 25 37 48 55 58 56 56 58 62 67 69 69 72 77 79 77 77 76 72 63 58 52 47 43 37 30 23 20 16 10
Wind_Direction_850mb
236 216 215 63 48 65 255 250 276 165 101 150 142 151 156 77 149 197 145 161 165 170 165 164 163 160 156 151 144 133 133 122 95 74 64 59 64 69 68 63 59 56 61 69 79 74 68 75 59
190 147 142 86 88 68 270 259 204 208 140 112 98 95 73 103 123 142 151 156 165 173 170 167 167 165 164 159 151 145 142 119 90 80 66 62 65 66 66 66 65 63 64 62 74 68 79 72 61
146 147 116 90 104 178 209 217 193 161 151 111 113 85 105 117 124 150 166 172 167 174 174 174 173 174 171 167 162 153 148 139 112 85 64 62 62 65 67 67 68 70 69 69 75 73 75 70 64
153 125 67 84 228 238 213 189 167 141 230 179 137 85 119 154 160 163 169 169 169 171 176 177 179 179 178 178 176 167 161 172 129 104 76 69 69 73 74 71 69 70 70 70 72 77 77 72 63
146 99 64 81 279 264 251 189 162 161 179 159 162 178 156 167 181 164 165 163 164 171 179 178 181 183 186 188 186 180 177 185 156 110 90 84 76 67 64 66 69 69 70 73 77 73 69 66 63
93 88 70 197 255 263 251 180 169 186 168 165 156 152 162 178 171 162 167 166 165 178 185 186 181 181 189 192 193 187 186 190 181 169 126 93 80 71 68 68 68 70 71 71 72 71 66 63 60
120 86 189 176 244 303 213 177 184 181 170 202 165 137 191 179 172 165 166 165 169 185 187 198 209 196 203 208 199 197 198 199 195 184 168 130 98 81 72 68 69 70 70 69 65 61 57 54 53
127 94 127 208 193 243 191 175 216 181 189 174 173 194 207 187 178 173 176 177 173 179 190 194 204 205 212 215 218 210 208 207 205 190 174 133 111 85 63 59 62 63 67 67 61 54 47 42 40
128 67 182 214 159 238 177 172 186 193 161 182 203 208 213 189 186 184 184 187 182 182 191 186 203 210 221 226 236 227 220 217 207 201 206 163 106 59 44 70 65 65 50 48 51 44 37 31 27
90 111 217 200 198 227 201 192 182 166 176 219 222 222 213 192 194 194 195 196 194 194 192 199 202 205 218 226 234 222 222 222 215 211 214 206 201 203 270 356 50 59 64 48 31 23 22 18 16
134 178 202 225 222 241 206 220 187 157 225 222 223 220 206 195 200 203 205 207 204 203 204 203 204 212 214 224 230 223 213 225 224 225 222 216 213 218 206 249 272 115 84 62 36 359 360 7 0
76 228 191 241 227 208 201 239 229 212 238 248 239 236 214 204 208 210 209 208 208 210 212 215 215 219 216 221 233 222 215 224 226 234 228 223 223 220 208 211 234 214 143 85 60 351 348 355 354
162 234 241 252 248 249 260 248 240 247 247 251 249 224 219 213 215 214 214 215 216 218 221 224 226 224 217 218 228 227 218 219 230 232 227 239 233 230 223 232 214 210 213 134 97 347 344 4 59
327 286 274 270 258 244 213 256 216 243 241 243 241 229 219 220 220 216 216 220 222 224 227 228 225 224 218 220 220 228 230 224 228 237 229 232 230 241 241 235 221 214 232 235 31 358 356 77 102
355 322 325 242 254 243 215 285 232 249 247 239 235 230 222 224 223 226 227 225 228 230 230 230 228 222 219 218 220 228 226 224 231 235 242 234 243 246 238 248 218 211 223 222 159 87 54 121 120
51 44 352 301 153 267 161 269 277 277 232 236 234 229 227 226 228 229 228 229 230 233 233 232 231 228 229 223 225 221 227 228 227 235 236 238 236 243 235 221 214 220 218 207 196 139 144 139 129
0 236 212 315 204 116 178 269 272 265 227 244 244 237 235 235 232 230 229 230 231 232 236 238 236 234 233 226 222 223 224 229 232 237 235 231 240 230 239 223 200 208 212 190 207 180 180 151 137
201 211 230 230 213 184 228 260 265 257 247 257 259 254 246 242 241 236 231 232 233 235 235 237 237 230 228 223 216 217 223 229 233 224 239 230 224 244 237 209 201 205 191 209 227 210 168 153 146
140 188 229 242 242 199 231 246 263 254 244 263 261 256 252 248 250 238 234 234 235 237 237 235 230 225 220 217 212 215 219 216 224 246 217 220 251 208 196 217 205 184 191 186 210 191 175 160 156
163 215 255 285 229 194 268 256 246 261 233 245 255 258 257 253 248 241 232 233 234 237 237 232 227 224 221 219 214 213 217 225 220 223 238 216 199 199 213 203 193 180 195 222 188 188 178 169 165
213 199 222 235 322 255 313 266 232 258 251 253 257 258 260 261 258 248 235 233 232 232 230 229 227 223 218 214 208 208 211 215 229 219 219 201 194 207 213 193 195 187 202 191 174 171 183 185 180
237 207 180 217 53 256 6 293 187 225 241 237 252 258 262 264 262 256 243 236 233 231 226 226 225 222 219 213 210 218 223 221 219 223 198 211 202 193 193 188 186 189 182 179 174 166 167 166 161
223 130 176 163 195 340 334 279 105 112 261 257 267 272 279 275 271 265 256 243 235 229 226 224 222 222 220 212 216 220 219 224 225 207 213 192 190 185 185 187 184 183 177 175 172 165 166 159 157
146 83 53 47 55 274 190 178 284 183 216 271 282 273 331 317 279 263 251 240 232 225 223 221 221 222 219 212 216 219 223 222 213 205 197 188 186 183 189 188 184 183 181 176 171 166 160 149 134
113 104 307 325 337 242 344 228 259 296 265 216 263 297 306 302 280 265 248 233 226 219 219 219 220 221 216 214 220 221 220 224 206 202 205 188 190 188 185 186 184 182 177 171 165 158 148 129 109
197 167 161 224 217 276 45 239 257 235 273 276 285 298 300 303 287 261 248 234 225 219 219 221 220 220 217 217 217 219 217 207 209 202 201 193 191 186 183 182 183 180 175 171 166 159 147 126 108
191 201 159 99 44 27 231 284 291 264 273 290 305 291 295 284 267 252 238 228 222 220 218 220 221 219 224 226 223 221 222 222 212 205 195 191 186 184 181 180 179 176 173 169 164 159 145 128 104
157 169 103 49 191 242 283 274 230 273 264 317 338 330 292 269 251 245 238 229 220 217 217 218 221 225 230 228 228 226 221 216 213 205 199 191 190 188 185 184 184 181 177 173 166 159 143 125 107
148 193 136 122 162 183 292 258 216 222 202 255 290 325 308 254 249 240 231 223 216 216 218 221 221 221 223 228 227 226 225 224 216 209 195 197 192 191 188 186 183 180 177 171 166 156 141 127 117
274 207 157 162 202 232 166 263 188 194 195 249 322 344 331 209 228 237 230 222 214 218 220 224 226 224 226 225 225 227 227 220 213 203 198 197 195 191 189 186 184 180 176 170 165 156 142 136 132